Location: Orange
(33.2833°S, 149.1000°E)
Time: 18:24:45
(UTC+11:00)

Hubble Space Telescope - Pass Details

Date: 06 October 2022
Orbit: 530 x 534 km, 28.5° (Epoch: 04 December)

Event Time Altitude Azimuth Distance (km) Brightness Sun altitude
Exits shadow 05:52:37 13° 287° (WNW) 1,615 2.5 -9.5°
Maximum altitude 05:55:54 34° 350° (N) 886 1.7 -8.9°
Drops below altitude 10° 05:59:40 10° 56° (NE) 1,785 4.1 -8.1°
Sets 06:02:04 0° 65° (ENE) 2,674 5.3 -7.6°
